This is the latest recevied weather packets stored in our database for station/object SP1BMW-13. If no packets are shown the sender has not sent any weather packets the latest 10 day(s).
| Time | Temp. | Humidity | Pressure | Rain* | Wind** | Luminosity | Snow |
|---|---|---|---|---|---|---|---|
| 1777530661 | 7.78° C | 65% | 1031.3 hPa | 0 mm | 0 m/s | 171 W/m² | - |
| 1777530601 | 7.78° C | 65% | 1031.2 hPa | 0 mm | 0.45 m/s, 249° | 167 W/m² | - |
| 1777530541 | 7.22° C | 66% | 1030.9 hPa | 0 mm | 0.45 m/s, 268° | 163 W/m² | - |
| 1777530481 | 7.22° C | 67% | 1031 hPa | 0 mm | 0.45 m/s, 285° | 159 W/m² | - |
| 1777530421 | 7.22° C | 67% | 1031.3 hPa | 0 mm | 0.45 m/s, 275° | 156 W/m² | - |
| 1777530361 | 7.22° C | 68% | 1031.1 hPa | 0 mm | 0 m/s | 151 W/m² | - |
| 1777530301 | 7.22° C | 68% | 1031.1 hPa | 0 mm | 0.45 m/s, 307° | 146 W/m² | - |
| 1777530240 | 7.22° C | 68% | 1031.1 hPa | 0 mm | 0.89 m/s, 306° | 142 W/m² | - |
| 1777530181 | 7.22° C | 68% | 1031.2 hPa | 0 mm | 0.45 m/s, 308° | 139 W/m² | - |
| 1777530121 | 7.22° C | 68% | 1031 hPa | 0 mm | 0 m/s | 136 W/m² | - |
| 1777530061 | 6.67° C | 67% | 1031.1 hPa | 0 mm | 0.45 m/s, 271° | 133 W/m² | - |
| 1777530000 | 6.67° C | 67% | 1031.1 hPa | 0 mm | 0.45 m/s, 297° | 131 W/m² | - |
| 1777529941 | 6.67° C | 67% | 1031.1 hPa | 0 mm | 0 m/s | 129 W/m² | - |
| 1777529880 | 6.67° C | 67% | 1031 hPa | 0 mm | 0.45 m/s, 265° | 126 W/m² | - |
| 1777529821 | 6.67° C | 68% | 1031.1 hPa | 0 mm | 0 m/s | 124 W/m² | - |
| 1777529761 | 6.67° C | 69% | 1031 hPa | 0 mm | 0 m/s | 124 W/m² | - |
| 1777529701 | 6.67° C | 69% | 1031.1 hPa | 0 mm | 0 m/s | 124 W/m² | - |
| 1777529641 | 6.67° C | 69% | 1031.1 hPa | 0 mm | 0.89 m/s, 228° | 124 W/m² | - |
| 1777529580 | 6.67° C | 69% | 1031 hPa | 0 mm | 0.89 m/s, 301° | 123 W/m² | - |
| 1777529521 | 6.67° C | 69% | 1031 hPa | 0 mm | 0.45 m/s, 252° | 122 W/m² | - |
| 1777529460 | 6.67° C | 69% | 1030.9 hPa | 0 mm | 0.45 m/s, 234° | 124 W/m² | - |
| 1777529401 | 6.67° C | 69% | 1031 hPa | 0 mm | 0 m/s | 127 W/m² | - |
| 1777529341 | 6.67° C | 69% | 1031.1 hPa | 0 mm | 0 m/s | 129 W/m² | - |
| 1777529281 | 6.67° C | 70% | 1031.1 hPa | 0 mm | 0.45 m/s, 285° | 131 W/m² | - |
| 1777529221 | 6.67° C | 69% | 1031 hPa | 0 mm | 0.45 m/s, 292° | 132 W/m² | - |
* Rain latest hour (hover to see other rain measurements)
** Current wind speed in m/s (hover to see current wind gust speed)